(130) Elektra
ephemeris date magn radius delta ra dec elong phase
Today5 Jul 202512.62.490 AU2.527 AU02h00m-02°54'76.3°23.4°
Opposition29 Oct 202511.22.484 AU1.603 AU03h02m-19°22'145.1°13.2°
(130) Elektra - 2025-07-05
astro.vanbuitenen.nl


 
-1 year
-1 month
-1 day
Now
+1 day
+1 month
+1 year

The interactive orbit chart above shows the body's path through the solar system and its position at the given date. Green and blue lines are shown perpendicular to the ecliptic plane: Green if the path is above the ecliptic plane, blue if it is below. (Left-click and drag to rotate the view; Right-click and drag to move the view; Use scroll wheel to zoom in our out.)

The orbital elements of Elektra are:

            e (Eccentricity)                : 0.2094968
            a (Semimajor axis)              : 3.1241709
            i (Inclination)                 : 22.78322
            Ω (Longitude of ascending node) : 144.97162
            ω (Argument of perihelion)      : 237.90502
            M (Mean anomaly)                : 337.75506
            Epoch                           : 2025 May 05

            L (Longitude of perihelion)     : 200.74603
            B (Latitude of perihelion)      : -19.15120
            P (Orbital period in years)     : 5.52            
        

The light curve chart below shows the estimated development of the minor planet's magnitude.


The all-sky chart below shows the path of the minor planet over the same period as the light curve. The current position is marked yellow.





The following chart shows the path of the minor planet in the next few days. The field of view is optimized for (~10x50) binoculars and finderscopes. A more printer-friendly version of the same chart can be found below.




Ephemerides:
Date       Time       RA (2000)    DEC (2000)    delta   radius  elong  phase   PA    magn
2025-07-05 00:00 UT   02 00 49.8   -02 54 40     2.527    2.490   76.3   23.4   246   12.6 
2025-07-05 23:25 UT   02 02 17.1   -02 55 41     2.515    2.489   76.9   23.4   246   12.5 
2025-07-06 00:00 UT   02 02 19.3   -02 55 43     2.515    2.489   76.9   23.4   246   12.5 
2025-07-07 00:00 UT   02 03 48.3   -02 56 55     2.503    2.489   77.5   23.5   246   12.5 
2025-07-08 00:00 UT   02 05 16.8   -02 58 16     2.491    2.488   78.1   23.6   246   12.5 
2025-07-09 00:00 UT   02 06 44.9   -02 59 45     2.479    2.488   78.7   23.6   246   12.5 
2025-07-10 00:00 UT   02 08 12.5   -03 01 24     2.467    2.487   79.3   23.7   247   12.5 
2025-07-11 00:00 UT   02 09 39.6   -03 03 12     2.455    2.486   79.8   23.7   247   12.5 
2025-07-12 00:00 UT   02 11 06.3   -03 05 10     2.443    2.486   80.4   23.8   247   12.5 
2025-07-13 00:00 UT   02 12 32.4   -03 07 16     2.432    2.485   81.0   23.8   247   12.5 
2025-07-14 00:00 UT   02 13 58.0   -03 09 32     2.420    2.485   81.7   23.9   247   12.5 
2025-07-15 00:00 UT   02 15 23.0   -03 11 58     2.408    2.484   82.3   23.9   248   12.5 
2025-07-16 00:00 UT   02 16 47.5   -03 14 33     2.396    2.484   82.9   24.0   248   12.5 
2025-07-17 00:00 UT   02 18 11.4   -03 17 18     2.384    2.483   83.5   24.0   248   12.4 
2025-07-18 00:00 UT   02 19 34.8   -03 20 13     2.372    2.483   84.1   24.0   248   12.4 
2025-07-19 00:00 UT   02 20 57.6   -03 23 18     2.360    2.482   84.7   24.1   249   12.4 
2025-07-20 00:00 UT   02 22 19.7   -03 26 32     2.349    2.482   85.3   24.1   249   12.4 
2025-07-21 00:00 UT   02 23 41.3   -03 29 57     2.337    2.481   85.9   24.1   249   12.4 
2025-07-22 00:00 UT   02 25 02.2   -03 33 32     2.325    2.481   86.6   24.1   249   12.4 
2025-07-23 00:00 UT   02 26 22.4   -03 37 17     2.313    2.480   87.2   24.1   250   12.4 
2025-07-24 00:00 UT   02 27 42.0   -03 41 12     2.301    2.480   87.8   24.2   250   12.4 
2025-07-25 00:00 UT   02 29 00.8   -03 45 18     2.290    2.479   88.4   24.2   250   12.4 
2025-07-26 00:00 UT   02 30 19.0   -03 49 34     2.278    2.479   89.1   24.2   250   12.3 
2025-07-27 00:00 UT   02 31 36.4   -03 54 00     2.266    2.478   89.7   24.2   251   12.3 
2025-07-28 00:00 UT   02 32 53.2   -03 58 37     2.255    2.478   90.3   24.2   251   12.3 
2025-07-29 00:00 UT   02 34 09.1   -04 03 25     2.243    2.478   91.0   24.2   251   12.3 


    Terminology:
            
    delta:  distance between minor planet and earth in AU
    radius: distance between minor planet and sun in AU
    magn:   magnitude (brightness) estimate    
    ra:     right ascension in hours (24h = 360deg)
    dec:    declination in degrees
    elong:  elongation in degrees (angle sun-earth-minor planet)    
    phase:  phase angle in degrees (angle sun-minor planet-earth)        
    AU:     Astronomical Unit (mean distance between earth and sun: 149597870.7 km
    

Orbital elements provided by the MPC (Minor Planet Center).
Calculations by a modified version of AAPlus, a C# implementation of the AA+ project by PJ Naughter from the algorithms presented in the book "Astronomical Algorithms" by Jean Meeus.
NGC2000 dso catalog and star labels from VizieR as provided by the Strasbourg astronomical Data Center.
Tycho2 catalog from the ESO archive.